Regional Weather Roundup
Issued by NWS

Home | Current Version | Previous Version | Text Only | Print | Product List | Glossary Off
Versions: 1 2 3 4 5 6 7 8 9 10 11 12 13 14 15 16 17 18 19 20 21 22 23 24 25 26 27 28 29 30 31 32 33 34 35 36 37 38 39 40 41 42 43 44 45 46 47 48 49 50

000
ASUS43 KIND 210209
RWRIN

WEATHER ROUNDUP FOR INDIANA
NATIONAL WEATHER SERVICE INDIANAPOLIS IN
1000 PM EDT THU JUL 20 2017

NOTE: "FAIR" INDICATES FEW OR NO CLOUDS BELOW 12,000 FEET WITH NO
SIGNIFICANT WEATHER AND/OR OBSTRUCTIONS TO VISIBILITY.

* - STATION DOES NOT REPORT WEATHER SUCH AS PRECIPITATION OR FOG.

+ - STATION NOT QUALITY CONTROLLED BY THE NATIONAL WEATHER SERVICE.
    USE DATA WITH CAUTION...ESPECIALLY DEWPOINT AND RELATIVE
    HUMIDITY OBSERVATIONS.

INZ001>003-010>013-019-020-210300-
NORTHWEST INDIANA

CITY           SKY/WX    TMP DP  RH WIND       PRES   REMARKS
GARY /AIRPORT/ PTCLDY    81  72  74 E5        29.97S
KNOX *+        CLEAR     75  73  94 CALM      29.97R
LA PORTE +     CLOUDY    78  72  81 CALM      29.99R
MICHIGAN CITY+ CLOUDY    75  72  88 CALM      29.98R
MONTICELLO +   CLOUDY    80  79  95 CALM      29.96R
RENSSELAER +   CLOUDY    81  73  78 CALM      29.97R
VALPARAISO     CLOUDY    79  74  84 CALM      29.98S

$$

LMZ046-743>745-210300-
SOUTHERN LAKE MICHIGAN

STATION/POSITION TIME  TEMP    WIND        PRES    WAVE
                       AIR SEA DIR/SP/G            HT
                 (UTC) (F)     (DEG/KT/KT) (MB)    (FT)
BURNS HARBOR     0140   76      70/  5/  6 1015.2R
MICHIGAN CITY    0140   77      50/  4/  4   N/A
5NW MICH CITY    0200   75 74   90/  2/  2   N/A     1

$$

INZ004-005-014>016-021>024-210300-
NORTH CENTRAL INDIANA

CITY           SKY/WX    TMP DP  RH WIND       PRES   REMARKS
GOSHEN         PTCLDY    77  71  82 NW5       29.97R
LOGANSPORT +   CLOUDY    79  77  94 CALM      29.98R
PERU/GRISSOM   MOCLDY    83  76  79 CALM      29.96S
ROCHESTER +    PTCLDY    81  77  89 CALM      29.97R
SOUTH BEND     PTCLDY    76  70  82 N5        29.98R
WARSAW +       PTCLDY    77  75  94 CALM      29.97S

$$

INZ006>009-017-018-025>027-210300-
NORTHEAST INDIANA

CITY           SKY/WX    TMP DP  RH WIND       PRES   REMARKS
ANGOLA *+      PTCLDY    75  70  83 CALM      29.97S
AUBURN +       CLEAR     79  72  78 CALM      29.98R
FORT WAYNE     MOCLDY    81  75  82 W3        29.97S
HUNTINGTON +   PTCLDY    80  76  88 CALM      29.97R
KENDALLVILLE + CLOUDY   N/A N/A N/A CALM      29.98R

$$

INZ028-029-035-036-043>045-051>053-210300-
WEST CENTRAL INDIANA

CITY           SKY/WX    TMP DP  RH WIND       PRES   REMARKS
GREENCASTLE +  CLEAR     79  75  89 CALM      30.00R
LAFAYETTE      MOCLDY    83  80  91 CALM      29.95R HX  95
TERRE HAUTE    CLEAR     84  76  76 S6        29.97R

$$

INZ030>032-037>040-046>048-054>057-064-065-210300-
CENTRAL INDIANA

CITY           SKY/WX    TMP DP  RH WIND       PRES   REMARKS
CP ATTERBURY + CLEAR     79  73  83 CALM      29.99S
COLUMBUS       CLEAR     82  73  74 S7        29.99S
FRANKFORT +    CLOUDY    83  80  90 SW3       29.99R
INDIANAPOLIS   PTCLDY    82  77  84 SW6       29.98R
-EAGLE CREEK   CLEAR     83  76  79 S3        29.98R
KOKOMO +       CLOUDY    81  78  91 CALM      29.99R
MARION +       CLOUDY    79  77  94 CALM      29.99R
MT COMFORT *+  PTCLDY    81  75  83 CALM      30.00R
SHELBYVILLE    CLEAR     82  75  79 S5        29.98S
ZIONSVILLE +   MOCLDY    80  77  89 SW6       29.99S

$$

INZ033-034-041-042-049-050-058-059-210300-
EAST CENTRAL INDIANA

CITY           SKY/WX    TMP DP  RH WIND       PRES   REMARKS
MUNCIE         CLOUDY    82  76  81 CALM      29.98F
RICHMOND +     CLEAR     73  73 100 SW6       30.02S

$$

INZ060-061-067>069-081>083-085>088-210300-
SOUTHWEST INDIANA

CITY           SKY/WX    TMP DP  RH WIND       PRES   REMARKS
EVANSVILLE     CLEAR     84  72  67 SW3       30.00R
HUNTINGBURG *+ CLOUDY    81  76  84 S3        30.01R

$$

INZ062-063-066-070>080-084-089>092-210300-
SOUTH CENTRAL AND SOUTHEAST INDIANA

CITY           SKY/WX    TMP DP  RH WIND       PRES   REMARKS
BEDFORD +      CLEAR     81  73  78 CALM      29.99S
BLOOMINGTON    CLEAR     81  74  79 SW5       30.00R
MADISON *+     CLEAR     79  73  83 CALM      30.04R
NORTH VERNON + CLEAR     79  73  83 S5        30.01S
SEYMOUR +      PTCLDY    81  73  78 S6        29.99S

$$




USA.gov is the U.S. government's official web portal to all federal, state and local government web resources and services.